Weather History for RJCM - November, 2013

Change the Weather History Date:

Sunday, November 3, 2013

  Actual Average Record
Temperature  
Mean Temperature 45 °F -  
Max Temperature 51 °F 42 °F 68 °F (2003)
Min Temperature 39 °F 27 °F 32 °F (1996)
Degree Days  
Heating Degree Days 20    
Moisture  
Dew Point 41 °F    
Average Humidity 87    
Maximum Humidity 100    
Minimum Humidity 71    
Precipitation  
Precipitation 0.00 in - - ()
Sea Level Pressure  
Sea Level Pressure 29.91 in    
Wind  
Wind Speed 3 mph ()    
Max Wind Speed 9 mph    
Max Gust Speed -    
Visibility 4.5 miles    
Events Fog , Rain    
Averages and records for this station are not official NWS values.
T = Trace of Precipitation, MM = Missing Value Source: Averaged Metar Reports

Daily Weather History Graph

Daily Weather History Graph

Search for Another Location

Airport or City:

Trip Planner

Search our weather history database for the weather conditions in past years. The results will help you decide how hot, cold, wet, or windy it might be!

Date:

Astronomy

Nov. 03, 2013 Rise Set
Actual Time 6:01 AM JST 4:11 PM JST
Civil Twilight 5:31 AM JST 4:41 PM JST
Nautical Twilight 4:57 AM JST 5:15 PM JST
Astronomical Twilight 4:23 AM JST 5:49 PM JST
Moon 5:21 AM JST (11/3) 3:57 PM JST (11/3)
Length of Visible Light 11h 10m
Length of Day
10h 09m
Waning Crescent, 0% of the Moon is Illuminated
Nov 3
Waning Crescent
Nov 3
New
Nov 10
First Quarter
Nov 18
Full
Nov 26
Last Quarter

Hourly Weather History & Observations

Time (JST) Temp. Windchill Dew Point Humidity Pressure Visibility Wind Dir Wind Speed Gust Speed Precip Events Conditions
8:00 AM 42.8 °F - 37.4 °F 81% 29.98 in 6.2 mi Variable 2.3 mph - N/A   Mostly Cloudy
9:00 AM 46.4 °F 44.3 °F 39.2 °F 76% 29.95 in 6.2 mi SSW 4.6 mph - N/A Rain Light Rain Showers
10:00 AM 50.0 °F - 42.8 °F 76% 29.92 in 6.2 mi NNW 2.3 mph - N/A   Mostly Cloudy
11:00 AM 50.0 °F - 42.8 °F 76% 29.89 in 6.2 mi NNW 4.6 mph - N/A Rain Light Rain Showers
12:00 PM 51.8 °F - 42.8 °F 71% 29.89 in 6.2 mi North 9.2 mph - N/A   Mostly Cloudy
1:00 PM 50.0 °F - 42.8 °F 76% 29.86 in 6.2 mi North 5.8 mph - N/A Rain Light Rain Showers
2:00 PM 50.0 °F - 44.6 °F 82% 29.89 in 6.2 mi North 6.9 mph - N/A Rain Light Rain Showers
3:00 PM 48.2 °F - 44.6 °F 87% 29.89 in 6.2 mi NE 2.3 mph - N/A   Mostly Cloudy
4:00 PM 48.2 °F - 42.8 °F 82% 29.89 in 6.2 mi NE 2.3 mph - N/A   Partly Cloudy
5:00 PM 42.8 °F 41.1 °F 41.0 °F 93% 29.89 in 6.2 mi South 3.5 mph - N/A   Partly Cloudy
6:00 PM 42.8 °F - 41.0 °F 93% 29.89 in 6.2 mi ENE 1.2 mph - N/A   Partly Cloudy
6:21 PM 41.0 °F - 39.2 °F 93% 29.92 in 5.0 mi South 2.3 mph - N/A Fog Shallow Fog
6:33 PM 42.8 °F - 41.0 °F 93% 29.92 in 4.3 mi South 1.2 mph - N/A   Partly Cloudy
6:50 PM 41.0 °F - 39.2 °F 93% 29.92 in 3.1 mi SSW 2.3 mph - N/A Fog Shallow Fog
7:00 PM 41.0 °F - 39.2 °F 93% 29.92 in 3.7 mi Variable 2.3 mph - N/A Fog Shallow Fog
7:08 PM 39.2 °F - 37.4 °F 93% 29.92 in 0.2 mi Variable 2.3 mph - N/A Fog Fog
7:18 PM 39.2 °F - 39.2 °F 100% 29.92 in 0.1 mi Variable 2.3 mph - N/A Fog Fog
7:20 PM 41.0 °F 39.0 °F 39.2 °F 93% 29.92 in 0.1 mi SSW 3.5 mph - N/A Fog Fog
8:00 PM 41.0 °F 38.0 °F 39.2 °F 93% 29.92 in 0.2 mi South 4.6 mph - N/A Fog Fog